SICH-1
1 23657U 95046A   06222.72268081  .00000203  00000-0  22781-4 0  8238
2 23657 082.5300 007.0318 0023739 179.9750 180.1449 14.81378396590061
NOAA-15
1 25338U 98030A   06221.68367441  .00000098  00000-0  60393-4 0 06136
2 25338 098.5164 222.3886 0009909 214.3467 145.7071 14.24597149428332
RESURS
1 25394U 98043A   06222.80574046 -.00000020  00000-0  96691-5 0  4324
2 25394 098.4906 283.8446 0002209 035.8387 324.2940 14.24108252420170
FENGYUN1
1 25730U 99025A   06221.55827684 -.00000205  00000-0 -88965-4 0  7951
2 25730 098.6275 212.0923 0014731 352.7201 007.3753 14.11812742373549
OKEAN-0
1 25860U 99039A   06222.60898546  .00000047  00000-0  14435-4 0  8215
2 25860 097.7329 234.4050 0000813 042.4965 317.6304 14.73380560379763
NOAA-16
1 26536U 00055A   06221.77361682 -.00000136  00000-0 -48855-4 0 09898
2 26536 099.0701 189.0334 0010434 334.4838 025.5822 14.12358702303141
NOAA-17
1 27453U 02032A   06221.79080572  .00000080  00000-0  54073-4 0 00078
2 27453 098.6184 292.9553 0010885 280.7856 079.2085 14.23799638214406
NOAA-18
1 28654U 05018A   06221.81712735  .00000347  00000-0  21692-3 0 05885
2 28654 098.7884 163.9517 0015305 069.5464 290.7342 14.10982564062949
HUBBLE
1 20580U 90037B   06221.65488401  .00000336  00000-0  13278-4 0 06748
2 20580 028.4682 061.3302 0003383 034.2930 325.7881 15.00073012693135
UARS
1 21701U 91063B   06222.83096731  .00005142  00000-0  10106-3 0  8407
2 21701 056.9755 216.8315 0098044 316.9186 042.4245 15.44154281817748
PO-34
1 25520U 98064B   06221.84299597  .00000399  00000-0  10037-4 0  5335
2 25520 028.4578 032.1810 0005736 104.7969 255.3264 15.16760061430201
ISS
1 25544U 98067A   06222.78373843  .00012476  00000-0  80803-4 0  4746
2 25544 051.6329 266.1781 0007863 175.4527 349.8246 15.76471502441771
OO-38
1 26063U 00004C   06221.74299246 -.00000018  00000-0  14236-4 0 06891
2 26063 100.1880 162.4263 0036803 317.1633 042.6684 14.35773222342369
NO-45
1 26932U 01043D   06221.95728458 -.00000043  00000-0  15614-4 0 03824
2 26932 067.0532 228.8930 0007986 244.6109 115.4175 14.29531464253659
UWE-1
1 28892U 05043C   06221.74466389  .00000085  00000-0  27805-4 0  5220
2 28892 098.1578 119.0813 0018010 007.5586 352.5888 14.59380838 41781
CO-58
1 28895U 05043F   06221.73390863  .00000184  00000-0  48636-4 0  5062
2 28895 098.1587 119.1694 0018505 007.9067 352.2460 14.59432235 41668
NCUBE2
1 28897U 05043H   06221.63694499  .00000118  00000-0  34650-4 0  1036
2 28897 098.1599 119.0587 0018230 009.3159 350.8365 14.59588115 33923
